Regional Weather Roundup
Issued by NWS

Home | Current Version | Previous Version | Text Only | Print | Product List | Glossary Off
Versions: 1 2 3 4 5 6 7 8 9 10 11 12 13 14 15 16 17 18 19 20 21 22 23 24 25 26 27

000
ASUS45 KBOU 130910
RWRCO

WEATHER ROUNDUP FOR COLORADO
NATIONAL WEATHER SERVICE DENVER/BOULDER CO
200 AM MST WED DEC 13 2017

NOTE: "FAIR" INDICATES FEW OR NO CLOUDS BELOW 12000 FEET WITH NO
SIGNIFICANT WEATHER AND/OR OBSTRUCTIONS TO VISIBILITY.

COZ001>005-013-030-031-131000-
...NORTHWEST COLORADO...

CITY           SKY/WX    TMP DP  RH WIND       PRES   REMARKS
CRAIG          FAIR       9   5  84 CALM      30.27F
HAYDEN         FAIR      23  13  65 E9        30.28S WCI  13
MEEKER         FAIR      17   8  67 CALM      30.28F
RABBIT EARS PA FAIR      28   9  43 W10G20    30.30F WCI  19
STEAMBOAT SPGS FAIR      19  12  76 CALM      30.27F
WALDEN         FAIR      25   9  50 SE5       30.25S WCI  19
$$

COZ006>008-011-131000-
...WEST CENTRAL VALLEYS...

CITY           SKY/WX    TMP DP  RH WIND       PRES   REMARKS
GRAND JUNCTION FAIR      26  10  50 E3        30.29S
MONTROSE       FAIR      21   9  59 SE8       30.32F WCI  11
EAGLE          FAIR      14  10  84 E3        30.36F
RIFLE          FAIR      22  10  60 CALM      30.31F
DELTA          FAIR      23   6  47 CALM      30.32S
NUCLA          FAIR      25   5  42 SE5       30.33S WCI  19
$$

COZ017>023-064>068-131000-
...SOUTHWEST COLORADO...

CITY           SKY/WX    TMP DP  RH WIND       PRES   REMARKS
DURANGO        FAIR      19   3  49 N5        30.26F WCI  12
CORTEZ         FAIR      14   3  61 E6        30.27F WCI   5
PAGOSA SPRINGS FAIR      23   1  39 CALM      30.27F
TELLURIDE      FAIR      30   8  38 SE8       30.35S WCI  23
WOLF CREEK PAS FAIR      28   0  29 NE5       30.45S WCI  23
$$

COZ009-010-012-014-032>034-037-058>063-131000-
...CENTRAL COLORADO...

CITY           SKY/WX    TMP DP  RH WIND       PRES   REMARKS
ASPEN          FAIR      25  11  55 SW9       30.30F WCI  15
BUENA VISTA    FAIR      27   8  45 CALM      30.26F
COPPER MTN     NOT AVBL
BERTHOUD PASS  FAIR      21  10  63 NW44G55   30.26F WCI   0
COTTONWOOD PAS FAIR      39   1  20 NW7G22    30.29F
GUNNISON       FAIR       7   2  80 CALM      30.37S
KREMMLING      FAIR      10   7  85 SW3       30.33S
LEADVILLE      FAIR      24   2  38 NE8       30.31F WCI  15
MONARCH PASS   FAIR      27   0  31 W7G23     30.48S WCI  19
SALIDA         FAIR      27  10  48 CALM      30.33F
SUNLIGHT       FAIR      30   5  34 W7        30.41F WCI  23
WILKERSON PASS FAIR      32 -13  14 NW14G40   30.32F WCI  22
$$

COZ069>075-131000-
...SAN LUIS VALLEY/SANGRE DE CRISTO MOUNTAINS...

CITY           SKY/WX    TMP DP  RH WIND       PRES   REMARKS
ALAMOSA        FAIR       7  -4  60 SW5       30.28S WCI  -2
DEL NORTE      FAIR      28   4  35 W12       30.28S WCI  18
LA VETA PASS   FAIR      32   9  37 SW28G44     N/A  WCI  18
SAGUACHE       NOT AVBL
$$

COZ035-036-038>040-131000-
...NORTHERN COLORADO FRONT RANGE...

CITY           SKY/WX    TMP DP  RH WIND       PRES   REMARKS
DENVER INTL AP MOCLDY    50   4  15 W14       30.05S
DMNS CITY PARK NOT AVBL
AURORA         PTCLDY    42   6  22 SW9       30.07F
FRONT RANGE AP FAIR      45   7  21 SW10      30.06S
ERIE MUNI ARPT FAIR      47   0  14 CALM      30.09S
BOULDER MUN AP FAIR      54   5  14 W6        30.04S
CENTENNIAL     FAIR      40   8  26 SW8       30.07F
BROOMFIELD     FAIR      54   3  13 NW14G21   30.06R
FORT COLLINS   FAIR      47   8  20 VRB3      30.04S
LONGMONT       FAIR      40  10  28 CALM      30.05S
$$

COZ041-046-047-076>085-087-088-131000-
...PIKES PEAK/PALMER DIVIDE AND SOUTHERN FOOTHILLS...

CITY           SKY/WX    TMP DP  RH WIND       PRES   REMARKS
COLO. SPRINGS  FAIR      40   7  25 N14       30.11S
A. F. ACADEMY  FAIR      33   4  28 E3        30.11S
SCHRIEVER AFB  FAIR      47   1  14 N13       30.10S
CHEYENNE MTN   FAIR      50  -5  10 N3        30.07F
ELLICOTT         N/A    N/A N/A N/A N9        30.08F
FALCON         FAIR      35   1  23 NW7       30.13S WCI  29
FORT CARSON    FAIR      32   7  35 N6        30.07F WCI  26
LIMON          FAIR      24   9  52 NW3       30.06S
MONUMENT HILL  FAIR      32   5  32 W10       30.14S WCI  24
CANON CITY     FAIR      48  12  23 W16       30.10F
WALSENBURG     FAIR      46  10  23 SW13G18   30.12S
TRINIDAD       FAIR      37  11  34 W15       30.10F
$$

COZ042>045-048>051-090-091-131000-
...NORTHEAST COLORADO...

CITY           SKY/WX    TMP DP  RH WIND       PRES   REMARKS
GREELEY ARPT   FAIR      24  12  60 VRB3      30.04R
AKRON          FAIR      39   9  29 MISG      30.03R
BURLINGTON     FAIR      34  14  43 NW10      30.01R WCI  26
WRAY           FAIR      39  12  33 W13       29.99R
YUMA           FAIR      34  12  40 W12       30.01R WCI  25
STERLING       FAIR      34  12  40 NW8       30.01R WCI  27
HOLYOKE        FAIR      48  10  21 NW13G21   29.97R
FORT MORGAN    FAIR      42   4  21 N14       30.04S
$$

COZ086-089-092>099-131000-
...SOUTHEAST COLORADO...

CITY           SKY/WX    TMP DP  RH WIND       PRES   REMARKS
PUEBLO         FAIR      29  11  47 VRB3      30.06S
LA JUNTA       FAIR      32  12  43 W8        30.04S WCI  25
LAMAR          FAIR      34  14  43 SW12      30.00F WCI  25
SPRINGFIELD      N/A     39  11  31 VRB5      30.01F
$$




USA.gov is the U.S. government's official web portal to all federal, state and local government web resources and services.